Location: ????????
(56.1167°N, 38.4333°E)
Time: 00:01:22
(UTC+00:00)

Daily predictions for brighter satellites

Satellite Brightness Start Highest point End
(mag) Time Altitude Azimuth Time Altitude Azimuth Time Altitude Azimuth
Cosmos 2278 Rocket 4.0 00:06:04 28° NE 00:06:04 28° NE 00:10:13 10° E
H-2A R/B 4.2 00:04:52 10° NNE 00:07:06 22° NE 00:07:06 22° NE
Cosmos 2333 Rocket 3.7 00:15:27 33° ENE 00:15:27 33° ENE 00:19:04 10° NE
CENTAUR R/B 3.5 00:18:07 49° N 00:18:07 49° N 00:25:39 10° ENE
COSMOS 2455 4.2 00:18:49 35° E 00:18:49 35° E 00:23:14 10° NE
ACS3 Solar Sail 2.9 00:13:54 10° NNE 00:19:30 39° E 00:19:36 39° E
ADEOS II 4.0 00:16:04 10° NNE 00:18:18 25° NNE 00:18:18 25° NNE
Cosmos 2369 Rocket 4.3 00:21:34 18° N 00:21:48 19° N 00:25:43 10° NE
USA 234 4.4 00:20:50 10° ESE 00:24:10 32° SE 00:24:10 32° SE
Resurs 1-4 Rocket 4.0 00:24:11 10° NNE 00:26:10 24° NNE 00:26:10 24° NNE
Cosmos 2360 Rocket 3.3 00:35:37 41° E 00:35:37 41° E 00:40:02 10° NE
Cosmos 2322 Rocket 3.2 00:35:54 42° ENE 00:35:54 42° ENE 00:40:11 10° NE
SL-16 R/B 3.1 00:42:20 44° NE 00:42:20 44° NE 00:46:10 10° NE
Cosmos 1943 Rocket 3.3 00:43:12 39° NE 00:43:25 39° NE 00:48:35 10° ESE
Cosmos 2278 4.4 00:50:20 50° NE 00:50:20 50° NE 00:54:30 10° NE
ADEOS Rocket 3.5 00:44:16 10° NNE 00:50:38 65° ESE 00:51:51 56° SSE
Cosmos 1140 Rocket 4.4 00:55:57 44° E 00:55:57 44° E 01:00:08 10° SE
NOSS 3-2 (C) 3.9 00:56:08 53° N 00:56:08 53° N 01:02:07 10° ENE
Cosmos 1697 Rocket 4.4 00:59:30 23° N 00:59:30 23° N 01:02:43 10° NNE
CZ-2C R/B 4.0 00:56:04 10° NNE 01:00:35 34° E 01:03:07 21° SE
SeaSat 1 4.3 01:00:43 10° NNE 01:02:54 22° N 01:02:54 22° N
Cosmos 2219 Rocket 2.8 01:13:22 46° SSE 01:14:20 52° ESE 01:19:51 10° NE
SJ 16-02 3.9 01:13:41 13° N 01:15:42 16° NE 01:18:29 10° ENE
USA 59 Rocket 2.5 01:19:17 11° ESE 01:19:17 11° ESE 01:19:57 10° ESE
NOSS 3-2 (A) 4.1 01:21:44 43° NNW 01:22:37 46° N 01:29:40 10° ENE
ALOS 4.4 01:18:39 10° N 01:19:42 16° N 01:19:42 16° N
Cosmos 1707 Rocket 4.2 01:28:36 53° E 01:28:36 53° E 01:32:51 10° NNE
USA 267 3.6 01:24:30 10° ENE 01:30:56 55° SSE 01:32:57 41° SSW
Meteor 2-19 Rocket 4.2 01:33:10 73° WSW 01:33:34 77° WNW 01:39:43 10° N
Cosmos 1727 Rocket 4.4 01:28:00 10° S 01:34:04 62° E 01:40:15 10° NNE
CZ-2D R/B 3.5 01:30:31 10° N 01:33:08 26° NNW 01:33:08 26° NNW
Cosmos 407 Rocket 4.1 01:34:28 30° N 01:36:48 54° NE 01:41:48 10° SE
Cosmos 1023 Rocket 4.3 01:38:51 79° SSE 01:38:51 79° SSE 01:43:35 10° SSE
Cosmos 2333 4.1 01:39:27 67° SSW 01:40:17 89° SE 01:46:07 10° NE
Cosmos 967 Rocket 4.4 01:40:01 64° WSW 01:41:02 80° NW 01:47:32 10° NE
Cosmos 2150 Rocket 4.0 01:42:53 62° S 01:43:44 81° ESE 01:49:03 10° NNE
Cosmos 1980 Rocket 3.6 01:46:11 25° NNW 01:46:11 25° NNW 01:50:40 10° NNE
USA 238 DEB 3.6 01:45:38 55° WNW 01:46:53 66° NNW 01:54:00 10° NE
USA 238 3.6 01:45:44 55° WNW 01:46:59 67° NNW 01:54:07 10° NE
Cosmos 1269 Rocket 3.8 01:48:36 74° WSW 01:48:36 74° WSW 01:53:51 10° SSE
COSMO-SKYMED 1 4.0 01:44:52 10° SE 01:48:37 35° ENE 01:52:24 10° N
H-2A R/B 2.6 01:44:00 10° N 01:47:35 41° NNW 01:47:35 41° NNW
Cosmos 2228 Rocket 3.3 01:48:33 43° SSE 01:49:51 67° E 01:54:16 10° NNE
Cosmos 2278 Rocket 2.2 01:47:56 38° NNW 01:50:14 82° NE 01:55:54 10° SE
Cosmos 2173 Rocket 3.9 01:44:48 10° NNW 01:50:57 88° E 01:57:03 10° S
Cosmos 2251 Rocket 4.4 01:50:42 15° NNW 01:54:57 48° NE 02:00:08 10° SE
Cosmos 2333 Rocket 2.3 01:57:29 52° WNW 01:57:55 54° NW 02:03:34 10° NNE
Cosmos 1153 Rocket 4.4 01:53:13 10° NNW 01:59:13 57° W 02:05:17 10° S
ADEOS II 3.3 01:56:00 10° N 01:59:06 27° NNW 01:59:06 27° NNW
Lacrosse 4 Rocket 3.5 02:01:49 16° N 02:02:18 16° N 02:04:50 10° NE
ACS3 Solar Sail 1.8 01:56:54 10° N 02:02:42 53° WNW 02:03:45 47° W
COSMOS 2455 2.8 02:01:58 51° W 02:03:25 68° NW 02:09:28 10° NE
Cosmos 2369 Rocket 3.7 02:03:21 14° NNW 02:07:36 32° NE 02:12:40 10° E
Cosmos 2298 Rocket 3.9 02:06:27 46° SW 02:08:01 75° WNW 02:13:23 10° NNE
Resurs 1-4 Rocket 3.7 02:04:40 10° N 02:07:11 20° NNW 02:07:11 20° NNW
CENTAUR R/B 3.5 02:05:13 27° NW 02:09:30 59° NNE 02:18:18 10° E
Meteor 1-24 Rocket 4.4 02:04:21 10° S 02:09:56 54° E 02:15:20 10° NNE
Cosmos 1939 Rocket 3.1 02:06:27 10° NNE 02:10:18 65° ESE 02:13:56 11° S
USA 234 4.0 02:05:29 10° SSE 02:11:11 31° SW 02:11:31 31° SW
Lacrosse 5 rocket 1.0 02:13:17 70° E 02:13:17 70° E 02:16:19 10° ENE
Cosmos 2123 Rocket 4.3 02:09:30 10° S 02:15:39 67° E 02:21:48 10° NNE
BlueWalker 3 3.9 02:20:01 16° S 02:20:01 16° S 02:21:16 10° SSE
Cosmos 2360 Rocket 2.4 02:17:23 43° W 02:18:39 51° NW 02:24:12 10° NNE
Cosmos 2322 Rocket 2.5 02:17:43 42° WNW 02:18:51 47° NW 02:24:21 10° NNE
Meteor 2-5 Rocket 4.4 02:14:41 10° S 02:20:29 60° E 02:26:14 10° NNE
Cosmos 2084 4.4 02:19:56 30° NNW 02:20:37 32° N 02:24:19 10° ENE
Cosmos 1782 Rocket 3.9 02:17:19 10° N 02:21:45 66° ENE 02:26:06 10° SSE
Cosmos 2016 Rocket 4.0 02:15:45 10° NNW 02:22:11 90° SW 02:28:33 10° S
SL-16 R/B 2.9 02:24:11 32° NW 02:25:07 34° NW 02:30:16 10° NNE
Cosmos 44 Rocket 4.0 02:26:23 35° WSW 02:26:23 35° WSW 02:31:02 10° S
Cosmos 1943 Rocket 2.1 02:24:44 29° NW 02:27:26 60° WSW 02:32:50 10° SSE
Helios 1A Rocket 2.2 02:24:44 10° SSE 02:28:08 84° WSW 02:29:00 48° NNW
NOSS 2-3 (C) 4.2 02:27:53 34° NNW 02:28:25 35° NNW 02:32:39 10° NE
Meteor 2-14 Rocket 4.3 02:24:02 10° SSW 02:30:07 68° WNW 02:36:12 10° N
Cosmos 1461 3.6 02:30:30 34° NNW 02:30:41 34° NNW 02:34:23 10° NE
NOSS 2-1 (C) 4.1 02:29:04 21° S 02:30:44 37° SE 02:33:32 10° ENE
ARGOS 3.2 02:25:56 10° N 02:31:13 53° WNW 02:34:51 20° SW
PAYLOAD A 4.1 02:28:04 10° NNE 02:33:28 65° WNW 02:38:45 10° SSW
Timation 2 Rocket 4.3 02:29:48 23° NW 02:33:44 49° WSW 02:39:54 10° S
Meteor 2-21 Rocket 4.5 02:27:49 10° S 02:33:56 82° E 02:40:04 10° NNE
Cosmos 1125 Rocket 4.4 02:34:08 28° NW 02:34:39 29° NW 02:39:15 10° NNE
NOSS 2-1 (D) 3.8 02:33:15 23° SSW 02:34:50 42° SE 02:37:41 10° ENE
H-2A R/B 3.2 02:31:09 10° N 02:34:56 56° WNW 02:35:56 41° WSW
ADEOS Rocket 3.7 02:30:12 10° N 02:35:54 37° WNW 02:38:45 26° W
H-2A R/B 4.4 02:33:46 10° NNW 02:33:55 10° NNW 02:33:55 10° NNW
Aureole 3 Rocket 4.4 02:32:55 10° N 02:36:40 42° ENE 02:41:37 10° SE
Cosmos 1140 Rocket 3.9 02:35:56 35° W 02:36:50 38° WSW 02:41:31 10° S
Cosmos 1908 Rocket 3.6 02:33:14 10° NNW 02:37:35 53° W 02:41:53 10° S
Okean 1-7 3.1 02:36:46 38° WSW 02:37:48 47° WNW 02:41:56 10° N
Cosmos 1862 Rocket 3.9 02:38:05 39° WNW 02:38:16 40° WNW 02:42:21 10° N
CZ-2C R/B 2.6 02:34:02 10° N 02:38:49 50° WNW 02:42:20 18° SW
SeaSat 1 4.3 02:38:23 10° NNE 02:41:10 15° NNW 02:42:32 14° NNW
Cosmos 2061 Rocket 4.0 02:35:38 10° NNW 02:41:54 86° ENE 02:48:07 10° SSE
Cosmos 1809 Rocket 4.5 02:36:01 10° SSW 02:42:01 56° WNW 02:48:01 10° N
Cosmos 1300 Rocket 3.4 02:38:08 10° NNW 02:42:31 76° W 02:46:49 10° S
NOSS 3-1 (C) 3.3 02:40:03 14° SW 02:44:19 70° SE 02:50:23 10° NE
Cosmos 2100 Rocket 4.2 02:39:33 10° NNW 02:45:18 43° W 02:51:02 10° SSW
NOSS 3-2 (C) 4.3 02:43:32 23° WNW 02:47:15 46° N 02:54:30 10° ENE
Iridium 4 Rocket 2.9 02:45:48 10° N 02:50:15 65° W 02:54:24 10° S
Cosmos 1812 3.9 02:48:26 10° N 02:51:07 31° ENE 02:53:47 10° SE
SJ 16-02 1.6 02:50:21 10° NNW 02:54:41 68° ENE 02:58:57 10° SE
Cosmos 1190 Rocket 3.9 02:51:23 10° NNW 02:56:43 84° WSW 03:01:58 10° SSE
Cosmos 676 Rocket 4.3 02:52:20 10° NNW 02:57:38 70° ENE 03:02:51 10° SE
IRS-1D 3.4 02:52:47 10° NNE 02:57:49 85° WNW 03:02:45 10° SSW
Cosmos 2219 Rocket 2.6 02:55:06 22° WSW 02:58:25 45° NW 03:03:54 10° NNE
SL-24 R/B - RUBIN 2 3.9 02:58:33 20° WSW 03:02:11 64° NW 03:06:55 10° NE
NOSS 0 Rocket 4.2 02:56:13 10° SSW 03:02:21 73° ESE 03:08:30 10° NE
NOSS 2-2 (C) 4.1 03:00:58 20° NW 03:02:53 39° NNE 03:06:47 10° E
USA 59 Rocket -1.0 03:05:02 19° SW 03:07:09 85° SE 03:10:05 10° NE
COSMOS 2428 2.6 03:02:07 10° SW 03:07:49 77° NW 03:13:33 10° NNE
Cosmos 371 Rocket 3.3 03:06:32 10° NNW 03:11:25 86° ENE 03:16:16 10° SSE
SL-08 RB Rocket 4.4 03:07:45 10° N 03:11:47 31° WNW 03:15:43 10° WSW
Cosmos 1869 2.9 03:08:21 10° NNW 03:11:52 89° W 03:15:22 10° S
FengYun 1-2 T 4.3 03:06:57 10° NNE 03:12:24 59° WNW 03:17:51 10° SW
NOSS 2-2 (D) 4.3 03:11:13 17° NW 03:13:17 33° NNE 03:16:54 10° E
CZ-2D R/B 4.0 03:12:31 10° NNW 03:13:57 11° NW 03:14:23 11° NW
USA 267 3.3 03:07:44 10° ENE 03:14:18 90° NNE 03:20:18 13° W
NOSS 3-2 (A) 4.2 03:09:05 15° NW 03:14:31 59° NNE 03:22:28 10° ESE
Cosmos 1954 Rocket 3.9 03:09:38 10° NNW 03:14:53 75° WSW 03:20:02 10° SSE
Cosmos 2322 3.7 03:09:45 10° SW 03:15:24 63° NW 03:21:04 10° NNE
Cosmos 1725 Rocket 4.4 03:11:06 10° NNW 03:16:58 41° W 03:22:48 10° SSW
Cosmos 407 Rocket 4.1 03:14:38 13° NW 03:18:31 33° WSW 03:23:02 10° SSW
PKM 4.3 03:14:49 17° W 03:20:04 75° SSW 03:23:09 10° ESE
COSMO-SKYMED 1 3.0 03:20:09 10° SSW 03:23:58 35° W 03:27:48 10° NNW
SKYMED 2 4.4 03:20:45 10° SSW 03:24:32 29° W 03:28:22 10° NNW
DMSP B5D1-3 4.5 03:20:15 10° S 03:25:20 68° WSW 03:30:28 10° NNW
Cosmos 1484 Rocket 2.6 03:23:24 10° NNE 03:26:59 81° ESE 03:30:32 10° SSW
Aureole 3 4.5 03:20:45 10° S 03:27:02 79° E 03:32:23 10° NNE
H-2A R/B 3.6 03:24:42 10° NNW 03:27:11 14° NW 03:28:04 13° NW
Cosmos 1980 3.8 03:22:03 10° SSW 03:27:43 82° ESE 03:33:25 10° NE
Cosmos 2233 Rocket 4.2 03:22:19 10° NNW 03:28:21 48° W 03:34:19 10° SSW
Cosmos 2228 Rocket 4.3 03:26:01 14° W 03:28:26 21° WNW 03:31:50 10° N
NOSS 3-1 (A) 3.6 03:23:34 10° SW 03:28:26 65° SE 03:34:29 10° NE
Cosmos 1464 Rocket 4.3 03:23:50 10° N 03:30:05 72° ENE 03:36:12 10° SSE
Cosmos 1656 Rocket 3.7 03:25:08 10° NW 03:30:48 72° WSW 03:36:28 10° SSE
Cosmos 1980 Rocket 4.0 03:28:13 10° NW 03:32:04 18° N 03:35:53 10° NE
Cosmos 2297 3.9 03:27:07 10° NNW 03:32:49 76° NE 03:38:28 10° SE
Cosmos 2278 Rocket 3.2 03:29:48 12° NW 03:33:43 25° WSW 03:38:12 10° SSW
NOSS 2-1 (E) 2.6 03:33:28 10° WSW 03:36:46 74° NW 03:39:47 10° NE
Cosmos 2251 Rocket 4.0 03:32:09 10° NW 03:37:08 40° WSW 03:42:07 10° S
Cosmos 1400 Rocket 2.9 03:35:02 10° NNW 03:38:49 73° ENE 03:42:32 10° SSE
USA 238 DEB 4.3 03:33:04 13° WNW 03:38:50 47° N 03:46:00 10° ENE
USA 238 4.3 03:33:10 13° WNW 03:38:56 47° N 03:46:06 10° ENE
Cosmos 304 Rocket 3.8 03:35:10 10° NW 03:39:52 59° WSW 03:44:32 10° S
Lacrosse 4 Rocket 3.0 03:37:58 10° NNW 03:41:26 26° NNE 03:44:50 10° E
Cosmos 1703 Rocket 4.3 03:39:13 10° SW 03:43:05 30° WNW 03:47:00 10° N
Cosmos 2333 Rocket 3.5 03:39:30 12° WNW 03:43:29 23° NNW 03:48:04 10° NNE
Cosmos 1939 Rocket 4.1 03:41:06 10° NNW 03:43:54 19° WNW 03:46:42 10° WSW
Cosmos 2237 Rocket 2.2 03:38:20 10° SW 03:44:01 86° WNW 03:49:44 10° NE
ACS3 Solar Sail 3.2 03:41:05 10° N 03:44:31 16° NW 03:47:53 10° WNW
IGS 5A 3.4 03:43:58 10° NNE 03:48:01 88° E 03:52:02 10° SSW
Cosmos 2292 Rocket 4.4 03:45:05 10° SW 03:49:26 41° WNW 03:54:58 10° N
Sich 1 Rocket 4.1 03:45:06 10° N 03:49:40 68° ENE 03:54:11 10° SSE
Lacrosse 5 rocket 0.8 03:46:58 12° W 03:50:05 77° N 03:53:26 10° E
COSMOS 2455 3.7 03:45:06 11° W 03:50:19 33° NNW 03:55:46 10° NE
NOSS 2-2 (E) 3.9 03:48:06 10° NW 03:51:18 43° NNE 03:55:17 10° E
Cosmos 2369 Rocket 2.2 03:46:33 10° NW 03:52:15 85° WSW 03:57:57 10° SSE
Cosmos 2151 Rocket 3.6 03:48:23 10° NNW 03:52:55 82° W 03:57:25 10° S
Meteor 1-24 Rocket 4.3 03:48:06 10° SW 03:53:17 35° WNW 03:58:20 10° N
CZ-4 R/B 4.4 03:49:48 10° N 03:54:19 37° WNW 03:58:46 10° SW
Cosmos 1072 Rocket 4.4 03:52:18 10° NNW 03:58:25 75° W 04:04:31 10° S
Cosmos 2242 Rocket 3.5 03:54:37 10° SSW 03:58:59 69° WNW 04:03:25 10° N
Cosmos 2084 3.9 03:55:57 10° NW 03:59:58 49° NNE 04:03:55 10° E
Cosmos 968 Rocket 3.5 03:55:15 10° NNW 04:00:30 80° WSW 04:05:45 10° SSE
CENTAUR R/B 3.3 03:52:55 10° NW 04:00:48 79° SW 04:10:04 10° SE
Cosmos 1624 Rocket 4.3 03:56:44 10° SSW 04:01:54 75° ESE 04:07:06 10° NNE
Cosmos 2360 Rocket 3.5 03:59:35 10° WNW 04:03:57 22° NNW 04:08:20 10° NNE
Meteor 2-5 Rocket 4.4 03:58:57 10° SW 04:04:14 34° WNW 04:09:31 10° N
Cosmos 2322 Rocket 3.6 03:59:58 10° WNW 04:04:17 21° NNW 04:08:37 10° NNE
Gbstr 26 Del rocket 4.4 04:01:03 10° WSW 04:06:16 56° S 04:12:43 10° E
Cosmos 1420 Rocket 4.0 04:02:29 10° SW 04:07:45 70° WNW 04:13:05 10° NNE
ARIANE 5 R/B 3.1 04:03:04 10° NNE 04:08:06 65° ESE 04:13:08 10° S
Cosmos 1461 4.3 04:05:17 10° NW 04:08:31 23° N 04:11:44 10° NE
Cosmos 1943 Rocket 3.8 04:07:36 10° WNW 04:10:02 13° W 04:12:29 10° WSW
SL-16 R/B 3.8 04:06:58 10° NW 04:10:56 19° N 04:14:55 10° NE
